Tracking 19709 objects as of 19-Jun-2019
HD Live streaming from Space Station
objects crossing your sky now

DELTA 1 DEB

Track DELTA 1 DEB now!
10-day predictions


NORAD ID: 9976
Int'l Code: 1973-086GF
Perigee: 1,501.4 km
Apogee: 1,569.0 km
Inclination: 102.2 °
Period: 116.6 minutes
Semi major axis: 7906 km
RCS: 0.0352 m2 (small)
Launch date: November 6, 1973
Source: United States (US)
Launch site: AIR FORCE WESTERN TEST RANGE (AFWTR)

Note: This is SATELLITE DEBRIS
aabbcc
Your satellite tracking list
Your tracking list is empty




NASA's NSSDC Master Catalog

Two Line Element Set (TLE):
1  9976U 73086GF  19167.86831010  .00000074  00000-0  94761-3 0  9997
2  9976 102.2253 142.6243 0042746 189.2358 227.7761 12.34947698980708
Source of the keplerian elements: AFSPC